TimeCST,TemperatureF,Dew PointF,Humidity,Sea Level PressureIn,VisibilityMPH,Wind Direction,Wind SpeedMPH,Gust SpeedMPH,PrecipitationIn,Events,Conditions,WindDirDegrees,DateUTC
1:54 AM,39.0,35.1,86,30.07,8.0,NE,3.5,-,N/A,,Overcast,40,2012-11-06 07:54:00
2:54 AM,39.9,35.1,83,30.06,8.0,Calm,Calm,-,N/A,,Overcast,0,2012-11-06 08:54:00
3:54 AM,39.9,34.0,79,30.05,10.0,Calm,Calm,-,N/A,,Overcast,0,2012-11-06 09:54:00
4:54 AM,37.9,32.0,79,30.06,10.0,NE,3.5,-,N/A,,Clear,50,2012-11-06 10:54:00
5:54 AM,36.0,30.0,79,30.05,10.0,Calm,Calm,-,N/A,,Clear,0,2012-11-06 11:54:00
6:54 AM,33.1,30.0,89,30.07,5.0,Calm,Calm,-,N/A,,Clear,0,2012-11-06 12:54:00
7:54 AM,39.0,32.0,76,30.06,7.0,Calm,Calm,-,N/A,,Overcast,0,2012-11-06 13:54:00
8:54 AM,42.1,34.0,73,30.07,6.0,Calm,Calm,-,N/A,,Haze,0,2012-11-06 14:54:00
9:54 AM,44.1,35.1,71,30.06,8.0,South,4.6,-,N/A,,Overcast,190,2012-11-06 15:54:00
10:54 AM,46.9,35.1,63,30.05,8.0,Calm,Calm,-,N/A,,Overcast,0,2012-11-06 16:54:00
11:54 AM,50.0,34.0,54,30.01,8.0,Calm,Calm,-,N/A,,Mostly Cloudy,0,2012-11-06 17:54:00
12:54 PM,50.0,34.0,54,30.00,10.0,SW,4.6,-,N/A,,Overcast,220,2012-11-06 18:54:00
1:54 PM,48.9,36.0,61,29.98,10.0,West,6.9,-,0.00,Rain,Light Rain,270,2012-11-06 19:54:00
2:54 PM,46.9,37.0,68,29.96,8.0,WSW,4.6,-,0.00,Rain,Light Rain,240,2012-11-06 20:54:00
3:54 PM,46.9,39.0,74,29.96,8.0,Calm,Calm,-,0.00,,Overcast,0,2012-11-06 21:54:00
4:54 PM,46.0,37.0,71,29.96,7.0,South,3.5,-,0.00,,Overcast,170,2012-11-06 22:54:00
5:54 PM,45.0,39.0,80,29.97,7.0,South,3.5,-,0.01,Rain,Light Rain,190,2012-11-06 23:54:00
6:54 PM,45.0,39.9,82,29.98,6.0,Calm,Calm,-,0.01,Rain,Light Rain,0,2012-11-07 00:54:00
7:12 PM,44.6,39.2,81,29.97,6.0,Calm,Calm,-,0.01,Rain,Light Rain,0,2012-11-07 01:12:00
7:54 PM,44.1,39.9,85,29.96,5.0,Calm,Calm,-,0.01,Rain,Light Rain,0,2012-11-07 01:54:00
8:15 PM,44.6,41.0,87,29.96,6.0,Calm,Calm,-,0.00,Rain,Light Rain,0,2012-11-07 02:15:00
8:54 PM,44.1,41.0,89,29.96,5.0,Calm,Calm,-,0.00,Rain,Light Rain,0,2012-11-07 02:54:00
9:01 PM,44.6,41.0,87,29.96,5.0,Calm,Calm,-,0.00,Rain,Light Rain,0,2012-11-07 03:01:00
9:54 PM,44.1,41.0,89,29.96,5.0,West,5.8,-,0.01,Rain,Light Rain,260,2012-11-07 03:54:00
10:01 PM,44.6,41.0,87,29.95,5.0,West,5.8,-,0.00,Rain,Light Rain,260,2012-11-07 04:01:00
10:20 PM,44.6,41.0,87,29.94,4.0,West,4.6,-,0.00,,Overcast,260,2012-11-07 04:20:00
10:54 PM,44.1,41.0,89,29.94,4.0,WSW,3.5,-,0.00,,Overcast,240,2012-11-07 04:54:00
11:18 PM,44.6,41.0,87,29.93,4.0,Calm,Calm,-,N/A,,Overcast,0,2012-11-07 05:18:00
11:54 PM,44.1,41.0,89,29.93,5.0,WSW,3.5,-,0.00,,Overcast,250,2012-11-07 05:54:00